PDT,Max TemperatureF,Mean TemperatureF,Min TemperatureF,Max Dew PointF,MeanDew PointF,Min DewpointF,Max Humidity, Mean Humidity, Min Humidity, Max Sea Level PressureIn, Mean Sea Level PressureIn, Min Sea Level PressureIn, Max VisibilityMiles, Mean VisibilityMiles, Min VisibilityMiles, Max Wind SpeedMPH, Mean Wind SpeedMPH, Max Gust SpeedMPH,PrecipitationIn, CloudCover, Events, WindDirDegrees
2013-5-1,37,28,19,22,19,16,96,67,46,30.65,30.54,30.38,10,10,10,6,3,,0.00,2,,309
2013-5-2,50,38,28,23,18,15,64,45,27,30.50,30.36,30.18,10,10,10,7,4,,0.00,1,,245
2013-5-3,48,40,35,34,29,19,89,66,41,30.27,30.15,30.10,10,10,9,8,3,,0.00,6,Snow,350
2013-5-4,51,40,33,29,26,25,82,58,41,30.17,30.12,30.02,10,10,10,7,1,,0.00,3,,110
2013-5-5,57,47,37,30,26,23,62,45,28,30.04,29.92,29.83,10,10,10,8,5,17,0.00,0,,117
2013-5-6,64,55,46,31,24,17,46,32,21,29.83,29.76,29.70,10,10,9,12,6,20,0.00,0,,128
2013-5-7,64,57,50,32,27,19,47,33,25,29.86,29.76,29.69,10,10,10,10,4,20,0.00,0,,8
2013-5-8,66,56,45,37,32,28,56,43,27,29.94,29.91,29.85,10,10,10,10,7,21,0.00,0,,59
2013-5-9,66,58,53,39,33,22,55,40,23,30.00,29.96,29.93,10,10,10,9,6,17,0.00,1,,324
2013-5-10,66,60,54,35,31,23,44,36,20,30.11,30.07,30.01,10,10,10,7,5,,0.00,0,,313
2013-5-11,66,60,55,40,36,32,53,42,33,30.07,30.02,29.97,10,10,10,9,5,21,0.00,1,,239
2013-5-12,64,57,50,45,41,37,80,55,41,29.97,29.92,29.88,10,10,10,12,8,28,0.00,1,,241
2013-5-13,57,45,35,45,40,33,100,87,62,30.11,29.94,29.71,10,9,0,17,8,39,0.17,7,Fog-Rain,251
2013-5-14,45,37,30,32,26,23,88,70,47,30.11,30.02,29.90,10,10,10,13,8,38,0.00,5,Rain,271
2013-5-15,48,41,34,30,24,18,65,52,32,29.97,29.90,29.82,10,10,10,8,3,,0.00,3,,308
2013-5-16,44,40,35,39,36,29,100,88,67,29.96,29.88,29.79,10,8,0,8,3,,0.02,7,Fog-Rain,319
2013-5-17,48,42,37,40,38,35,100,91,66,29.99,29.89,29.75,10,5,0,9,4,,0.18,7,Fog-Rain,307
2013-5-18,37,36,35,38,36,34,100,99,93,30.13,30.00,29.83,10,2,0,7,5,,0.02,8,Fog-Rain,317
2013-5-19,42,38,33,38,37,34,100,95,81,30.28,30.17,30.04,10,4,0,9,6,,0.00,8,Fog,323
2013-5-20,55,47,39,40,37,34,100,73,44,30.30,30.10,29.86,10,10,10,10,4,20,0.00,4,,332
2013-5-21,59,44,32,41,37,32,100,77,40,29.83,29.66,29.51,10,7,0,13,9,23,0.00,5,Fog,98
2013-5-22,33,30,26,34,29,27,100,99,93,30.04,29.80,29.53,9,1,0,10,6,28,0.00,8,Fog-Rain-Snow,319
2013-5-23,45,36,26,32,28,23,100,84,52,30.03,29.92,29.82,10,8,0,6,1,,0.00,4,Fog,326
2013-5-24,45,36,30,34,31,25,100,89,49,30.01,29.91,29.78,10,6,0,9,4,,0.00,7,Fog-Snow,247
2013-5-25,44,36,30,34,31,28,100,88,65,30.02,29.95,29.88,10,6,0,7,4,,0.00,7,Fog,192
2013-5-26,55,44,36,39,34,26,100,73,38,30.00,29.86,29.78,10,8,0,7,4,,0.00,4,Fog-Rain,245
2013-5-27,48,42,37,39,38,34,100,92,58,29.99,29.86,29.68,10,5,0,7,4,,0.00,7,Fog-Rain,298
2013-5-28,46,40,35,41,38,35,100,97,76,29.88,29.80,29.63,10,4,0,9,4,16,0.00,8,Fog-Rain,267
2013-5-29,51,43,35,39,36,31,100,93,54,29.87,29.76,29.57,10,4,0,8,4,,0.00,6,Fog-Rain,220
2013-5-30,39,34,32,37,34,31,100,99,93,30.13,29.97,29.74,10,2,0,14,5,25,0.00,8,Fog-Rain-Snow,311
2013-5-31,48,40,32,34,32,28,100,77,48,30.18,30.13,30.04,10,9,1,9,5,20,0.03,2,,316